Tracking 27086 objects as of 22-Mar-2023
HD Live streaming from Space Station
objects crossing your sky now

COSMOS 2559 (GLONASS)

Track COSMOS 2559 (GLONASS) now!
COSMOS 2559 (GLONASS) is classified as:


NORAD ID: 54031
Int'l Code: 2022-130A
Perigee: 19,123.3 km
Apogee: 19,150.9 km
Inclination: 64.8 °
Period: 675.7 minutes
Semi major axis: 25508 km
RCS: Unknown
Launch date: October 10, 2022
Source: Commonwealth of Independent States (former USSR) (CIS)
Launch site: PLESETSK MISSILE AND SPACE COMPLEX (PKMTR)
SV: 707K
Your satellite tracking list
Your tracking list is empty




NASA's NSSDC Master Catalog

Two Line Element Set (TLE):
1 54031U 22130A   23081.30448063 -.00000082  00000-0  00000+0 0  9993
2 54031  64.7644 355.9875 0005419 236.1910 324.3161  2.13100995  3473
Source of the keplerian elements: AFSPC